Date,TemperatureHighF,TemperatureAvgF,TemperatureLowF,DewpointHighF,DewpointAvgF,DewpointLowF,HumidityHigh,HumidityAvg,HumidityLow,PressureMaxIn,PressureMinIn,WindSpeedMaxMPH,WindSpeedAvgMPH,GustSpeedMaxMPH,PrecipitationSumIn
2013-1-1,68.4,54.7,49.8,58.3,50.6,48.1,96,86,67,30.19,30.11,9,2,14,0.01
2013-1-2,68.0,56.3,48.6,61.3,52.9,47.7,99,89,67,30.35,30.18,5,0,7,0.00
2013-1-3,69.3,57.1,51.3,62.8,54.2,50.4,99,91,72,30.45,30.35,5,0,5,0.01
2013-1-4,67.1,55.4,47.5,50.2,45.0,41.0,91,69,48,30.39,30.11,8,1,9,0.00
2013-1-5,65.1,54.5,49.3,48.1,42.4,39.1,80,64,45,30.11,29.83,14,1,14,0.00
2013-1-6,52.5,48.8,44.4,45.9,41.7,35.8,89,76,70,29.95,29.75,29,7,29,0.04
2013-1-7,60.4,48.3,39.6,41.2,34.9,27.3,77,61,40,30.03,29.89,21,3,31,0.00
2013-1-8,45.3,40.2,35.2,37.9,31.3,25.1,93,71,46,30.25,30.03,26,4,30,0.02
2013-1-9,55.2,43.2,34.9,36.7,32.0,26.6,79,65,47,30.29,30.21,4,0,4,0.00
2013-1-10,64.6,49.8,39.7,45.9,37.1,26.7,79,63,36,30.24,30.08,4,0,7,0.00
2013-1-11,71.6,59.1,52.5,64.6,55.3,45.9,99,88,66,30.08,29.86,23,2,23,0.07
2013-1-12,68.5,56.4,50.7,59.1,51.6,45.7,99,85,62,30.08,29.86,14,1,19,0.11
2013-1-13,69.8,56.0,47.7,57.2,48.3,44.3,92,76,54,30.27,30.08,4,0,10,0.00
2013-1-14,62.4,56.7,54.0,56.5,51.6,48.4,90,83,78,30.33,30.25,17,2,17,0.00
2013-1-15,65.5,59.1,55.8,58.7,55.8,52.8,99,89,75,30.30,30.06,17,3,17,0.01
2013-1-16,61.7,58.1,52.0,59.3,55.0,49.0,99,90,76,30.06,29.73,21,7,24,0.58
2013-1-17,65.8,58.2,52.5,57.8,52.6,46.1,94,82,63,29.83,29.71,28,5,28,0.00
2013-1-18,60.3,56.2,49.3,57.2,52.2,43.3,99,87,68,29.71,29.50,26,7,29,0.08
2013-1-19,62.1,54.1,49.1,51.3,46.3,43.4,87,75,63,29.91,29.58,6,0,10,0.00
2013-1-20,76.3,60.1,51.3,61.0,54.3,46.2,98,82,55,29.99,29.90,8,0,10,0.00
2013-1-21,65.8,61.2,58.3,61.3,58.2,54.5,99,90,71,29.96,29.71,19,3,20,0.00
2013-1-22,70.3,61.1,55.4,60.4,54.5,51.4,97,80,60,29.84,29.71,14,1,15,0.00
2013-1-23,67.6,58.6,54.1,55.5,51.1,48.7,89,77,59,30.00,29.83,10,1,13,0.00
2013-1-24,68.0,57.9,50.9,60.2,54.5,46.1,99,89,74,29.99,29.63,22,5,24,0.12
2013-1-25,65.7,55.3,52.3,55.2,50.9,46.9,99,86,65,29.70,29.54,25,5,27,0.46
2013-1-26,63.7,54.3,48.2,55.8,50.8,47.9,99,88,71,29.70,29.48,14,2,17,0.20
2013-1-27,54.9,49.9,47.3,49.9,47.3,45.5,99,91,81,29.98,29.70,9,1,11,0.01
2013-1-28,63.5,52.9,45.9,53.7,47.0,43.4,95,81,64,30.04,29.94,11,1,13,0.01
2013-1-29,53.8,49.8,45.9,46.7,44.5,41.6,89,82,74,30.14,30.03,16,2,17,0.00
2013-1-30,61.7,52.3,44.2,49.7,42.9,39.0,88,71,52,30.14,29.99,9,2,12,0.00
2013-1-31,69.1,56.9,48.4,54.2,45.6,35.2,79,66,48,30.05,29.88,21,2,24,0.00
2013-2-1,68.7,56.1,46.4,51.1,43.2,35.9,91,64,35,30.11,29.95,15,2,21,0.00
2013-2-2,70.9,59.4,51.3,59.9,54.5,46.9,99,85,62,29.95,29.81,19,3,19,0.00
2013-2-3,69.6,62.5,59.4,60.6,59.6,58.0,99,91,71,29.97,29.83,23,9,30,0.00
2013-2-4,71.1,62.8,58.6,65.3,59.7,57.9,99,90,71,30.02,29.95,10,1,11,0.00
2013-2-5,66.6,60.3,54.3,59.9,55.7,49.9,98,85,69,30.02,29.88,13,1,17,0.00
2013-2-6,70.0,58.7,50.9,62.1,54.5,49.0,99,87,65,29.89,29.71,10,1,10,0.00
2013-2-7,66.4,58.2,52.3,57.4,54.3,50.9,99,87,70,29.75,29.58,22,7,30,0.15
2013-2-8,65.3,56.3,51.1,51.9,48.1,43.2,85,74,60,29.79,29.58,14,1,14,0.00
2013-2-9,67.5,57.2,49.6,50.3,46.9,43.4,83,69,52,29.92,29.79,11,2,13,0.00
2013-2-10,66.7,56.2,49.8,53.4,46.5,43.6,82,70,54,29.93,29.83,8,1,11,0.00
2013-2-11,58.5,52.2,48.2,45.3,42.4,39.1,86,70,53,30.09,29.81,18,3,20,0.00
2013-2-12,64.9,55.8,48.0,54.2,47.9,38.7,87,75,55,30.11,30.04,13,2,14,0.00
2013-2-13,58.6,55.2,48.7,55.2,52.1,48.5,99,89,79,30.04,29.92,21,3,29,0.52
2013-2-14,56.3,51.1,48.4,52.3,49.8,48.1,99,96,83,29.95,29.73,14,2,17,0.41
2013-2-15,60.3,50.5,46.8,54.1,48.2,45.8,99,92,74,30.07,29.72,11,2,14,0.13
2013-2-16,64.0,53.6,47.1,54.4,49.2,45.5,95,86,67,30.10,30.02,14,1,14,0.14
2013-2-17,50.9,48.3,44.4,50.5,46.1,41.6,99,92,84,30.10,29.98,26,5,27,0.45
2013-2-18,62.1,50.1,42.3,48.9,43.6,40.7,96,79,58,30.12,30.08,9,1,17,0.00
2013-2-19,62.6,53.7,49.8,57.5,49.9,44.5,99,87,70,30.09,29.81,13,2,18,0.09
2013-2-20,66.2,55.4,46.4,50.7,45.3,41.4,91,70,47,30.09,29.86,12,2,15,0.00
2013-2-21,58.1,54.7,52.7,56.7,48.9,45.5,95,81,71,30.09,29.75,21,2,27,0.04
2013-2-22,62.4,56.0,49.1,62.2,54.9,48.8,99,96,86,29.77,29.60,26,2,26,1.46
2013-2-23,71.1,59.9,51.1,66.3,56.1,50.8,99,88,65,30.06,29.77,4,0,6,0.00
2013-2-24,69.3,61.9,54.3,64.0,58.1,52.9,99,88,72,30.13,30.06,13,2,20,0.00
2013-2-25,69.8,63.8,60.6,62.1,58.9,56.3,99,85,74,30.11,30.01,14,3,18,0.00
2013-2-26,71.4,62.6,54.0,63.4,56.9,49.1,99,83,58,30.08,30.00,8,0,9,0.00
2013-2-27,64.4,56.5,51.6,52.7,48.2,44.8,89,75,55,30.09,29.99,7,1,9,0.00
2013-2-28,58.3,52.1,47.8,48.6,45.0,41.5,84,77,68,30.24,30.09,8,1,11,0.00
2013-3-1,64.8,54.3,44.2,47.8,43.7,37.5,86,69,49,30.23,30.06,4,0,5,0.00
2013-3-2,64.2,55.4,47.7,55.5,49.7,45.5,95,82,65,30.06,29.91,17,1,20,0.00
2013-3-3,59.0,54.0,48.6,53.2,48.6,42.2,96,82,68,30.00,29.78,27,6,31,0.43
2013-3-4,65.8,55.0,44.8,51.9,46.8,41.2,90,75,54,30.21,30.00,2,0,4,0.00
2013-3-5,59.4,53.6,49.3,48.6,44.6,39.9,92,72,61,30.45,30.21,19,2,20,0.00
2013-3-6,64.6,54.1,44.2,48.1,43.5,38.1,82,68,50,30.43,30.18,8,0,9,0.00
2013-3-7,63.3,55.9,53.8,61.0,52.9,47.6,99,90,78,30.19,29.96,4,0,7,0.24
2013-3-8,67.3,58.4,52.9,61.6,56.6,52.6,99,94,76,29.96,29.89,5,0,6,0.02
2013-3-9,75.2,62.8,54.0,68.3,58.9,53.7,99,88,66,29.90,29.76,9,1,11,0.05
2013-3-10,75.0,63.8,57.9,62.0,57.5,54.9,96,81,56,29.86,29.75,14,1,14,0.00
2013-3-11,76.8,65.7,57.0,67.0,60.7,53.9,99,84,66,29.75,29.62,13,1,14,0.00
2013-3-12,73.2,63.4,57.9,59.2,53.7,51.1,86,71,53,29.76,29.62,15,3,18,0.00
2013-3-13,69.6,62.0,53.4,61.9,56.1,48.9,99,82,64,29.79,29.73,21,3,21,0.00
2013-3-14,68.5,63.5,58.3,61.3,57.8,48.9,99,82,67,29.76,29.34,21,5,25,0.00
2013-3-15,68.5,58.7,52.2,53.4,49.4,43.8,83,72,58,29.65,29.43,23,4,23,0.00
2013-3-16,61.2,54.4,48.7,48.4,44.1,40.3,85,69,51,30.04,29.64,20,4,21,0.00
2013-3-17,64.4,53.3,45.3,47.7,42.4,40.2,83,68,45,30.21,30.03,10,1,10,0.00
2013-3-18,62.6,54.0,50.2,53.7,48.3,42.7,98,81,60,30.22,29.99,10,1,11,0.01
2013-3-19,66.4,60.5,55.4,60.4,56.9,52.5,98,88,76,30.00,29.82,14,4,16,0.00
2013-3-20,75.4,63.9,54.0,62.7,57.6,52.9,99,81,60,29.95,29.84,13,1,15,0.00
2013-3-21,68.0,64.3,61.2,62.3,59.0,50.3,96,83,67,29.83,29.58,24,6,24,0.00
2013-3-22,66.6,60.2,54.7,51.1,47.3,43.7,83,63,49,29.95,29.59,28,10,32,0.00
2013-3-23,70.7,59.6,49.3,49.2,40.0,27.3,77,51,24,30.01,29.80,11,0,12,0.00
2013-3-24,67.6,60.0,53.8,60.2,54.8,49.0,95,83,72,30.05,29.97,12,2,17,0.00
2013-3-25,67.3,61.8,57.9,60.9,58.4,54.2,99,89,75,29.98,29.66,22,4,26,0.00
2013-3-26,73.6,63.5,57.0,63.2,57.1,53.9,99,81,61,29.70,29.57,12,2,13,0.01
2013-3-27,70.9,62.9,54.1,63.7,56.0,49.7,87,78,62,29.87,29.70,11,1,16,0.00
2013-3-28,72.7,62.6,57.4,63.4,57.5,53.4,97,84,68,30.09,29.87,12,1,12,0.05
2013-3-29,73.2,63.1,54.9,64.4,58.8,54.6,99,87,66,30.09,30.02,8,1,9,0.00
2013-3-30,78.3,67.1,57.9,66.4,59.3,56.4,99,78,56,30.03,29.85,15,2,16,0.00
2013-3-31,71.1,65.3,61.0,65.3,60.7,56.6,96,85,73,29.89,29.76,14,2,14,0.00
2013-4-1,75.7,65.4,56.1,62.8,57.5,52.0,99,78,46,29.93,29.79,17,3,17,0.00
2013-4-2,73.4,66.0,57.6,61.0,56.3,51.6,92,71,58,29.92,29.61,19,4,21,0.00
2013-4-3,72.7,65.7,59.7,62.5,57.5,53.6,99,76,53,29.73,29.49,18,7,20,0.00
2013-4-4,73.8,64.7,57.4,59.9,55.0,52.9,89,72,51,29.97,29.73,21,8,21,0.00
2013-4-5,71.1,64.6,56.8,61.8,55.2,49.0,83,72,51,29.99,29.84,18,4,25,0.00
2013-4-6,79.2,68.8,58.6,63.8,57.2,52.1,82,67,50,29.85,29.73,12,2,12,0.00
2013-4-7,75.9,67.3,61.9,65.8,58.6,51.6,97,74,52,29.73,29.34,34,5,34,0.00
2013-4-8,66.6,61.1,58.3,57.9,55.7,53.2,97,83,69,29.93,29.44,14,3,14,0.01
2013-4-9,72.1,63.3,55.9,59.3,55.5,52.8,91,77,56,30.03,29.92,9,2,10,0.00
2013-4-10,73.9,64.9,55.0,62.8,56.9,52.8,95,76,56,30.04,29.95,11,3,13,0.00
2013-4-11,77.9,67.2,55.6,61.9,56.5,51.5,87,70,47,30.06,29.95,11,2,11,0.00
2013-4-12,78.6,67.2,56.3,62.8,56.8,51.2,86,70,55,30.11,30.02,12,2,12,0.00
2013-4-13,80.2,68.0,59.5,64.2,55.9,51.1,79,66,51,30.14,30.09,11,2,11,0.00
2013-4-14,81.5,68.4,61.2,65.8,58.4,51.8,83,71,48,30.13,30.06,21,3,23,0.01
2013-4-15,68.5,62.4,57.2,53.1,50.3,47.2,78,65,50,30.13,30.03,23,7,26,0.00
2013-4-16,68.5,60.3,52.9,59.4,50.2,46.8,93,71,50,30.12,30.04,30,9,30,0.04
2013-4-17,70.3,62.4,55.6,47.7,42.5,32.9,73,50,26,30.14,30.08,25,9,31,0.00
2013-4-18,68.0,61.4,55.4,44.8,39.9,35.5,66,46,32,30.12,30.05,31,10,31,0.00
2013-4-19,68.5,59.8,53.4,54.3,45.3,40.5,81,59,49,30.06,29.60,24,7,28,0.00
2013-4-20,70.3,61.1,53.1,53.2,47.5,43.1,77,62,49,30.08,29.98,21,6,23,0.00
2013-4-21,76.8,65.5,56.8,57.5,49.2,44.4,70,57,39,30.08,29.98,17,5,20,0.00
2013-4-22,76.6,67.2,57.0,58.1,51.3,46.4,80,57,45,30.11,30.02,17,5,21,0.00
2013-4-23,77.5,66.6,57.2,59.4,54.3,49.9,80,65,50,30.26,30.11,21,4,21,0.00
2013-4-24,82.0,69.6,57.7,63.7,57.4,51.3,82,66,41,30.36,30.25,13,2,14,0.00
2013-4-25,84.9,73.8,60.6,64.9,57.0,49.6,81,57,43,30.33,30.19,14,3,17,0.00
2013-4-26,86.7,75.1,63.0,64.0,57.3,48.8,81,56,32,30.21,30.03,14,3,15,0.00
2013-4-27,87.1,74.8,62.4,63.1,56.6,48.5,83,55,35,30.04,29.94,13,4,13,0.00
2013-4-28,84.0,73.7,62.2,68.1,55.7,44.2,79,55,36,30.09,29.98,11,4,13,0.00
2013-4-29,80.8,67.4,62.8,65.2,52.7,44.7,83,61,42,30.15,30.08,3,1,4,0.00
2013-4-30,91.4,79.0,64.4,65.5,58.3,50.7,82,51,38,30.15,30.05,17,4,21,0.00
2013-5-1,92.3,81.0,70.3,66.6,57.8,51.2,59,46,36,30.09,29.97,21,6,21,0.00
2013-5-2,92.1,81.9,72.3,59.3,53.9,46.0,55,39,28,29.99,29.92,20,8,22,0.00
2013-5-3,90.5,79.0,68.5,70.5,61.0,52.6,74,55,41,29.95,29.85,11,3,12,0.00
2013-5-4,88.5,78.1,67.8,70.2,65.1,58.4,86,65,50,29.99,29.88,11,3,14,0.00
2013-5-5,90.3,79.5,68.4,70.2,66.1,62.5,88,66,44,30.08,29.97,17,3,19,0.00
2013-5-6,90.0,80.6,72.5,68.6,63.7,58.5,82,58,41,30.09,30.00,22,9,26,0.00
2013-5-7,90.3,79.6,69.6,67.1,62.5,57.3,83,57,43,30.01,29.89,32,5,32,0.00
2013-5-8,81.5,71.0,66.9,67.3,64.4,61.8,89,80,59,29.94,29.85,21,5,25,0.00
2013-5-9,79.7,70.0,64.9,66.0,61.9,59.0,83,76,61,29.93,29.85,28,8,28,0.00
2013-5-10,78.4,68.3,61.2,67.5,62.4,58.9,99,82,64,29.94,29.87,15,5,18,0.09
2013-5-11,82.0,72.3,61.9,68.3,63.3,59.0,91,74,58,29.92,29.80,13,4,15,0.00
2013-5-12,84.2,74.6,66.6,70.4,65.4,61.6,94,74,53,29.81,29.69,15,5,15,0.00
2013-5-13,80.2,71.7,65.1,64.2,61.1,57.9,84,70,54,29.73,29.66,17,6,17,0.00
2013-5-14,79.7,68.5,62.4,64.5,59.9,56.5,95,75,56,29.89,29.71,20,6,20,0.04
2013-5-15,82.2,72.7,62.8,67.1,61.9,57.2,86,70,51,29.92,29.86,16,4,16,0.00
2013-5-16,81.1,71.1,64.8,70.6,63.4,58.6,88,77,60,29.95,29.86,17,4,21,0.00
2013-5-17,86.0,75.1,66.7,69.2,63.8,58.1,84,68,53,29.98,29.85,24,6,24,0.00
2013-5-18,88.3,77.9,67.3,74.0,68.3,63.4,92,73,56,30.03,29.93,15,3,15,0.00
2013-5-19,94.1,81.5,71.2,73.9,67.5,61.4,85,64,42,30.01,29.92,13,3,14,0.00
2013-5-20,93.0,82.1,70.5,74.8,69.6,63.7,86,67,51,29.96,29.89,9,3,10,0.00
2013-5-21,93.6,82.5,71.4,71.7,67.1,61.4,84,61,37,29.98,29.88,14,3,14,0.00
2013-5-22,88.2,78.8,70.0,74.7,66.6,59.3,90,68,41,29.93,29.75,23,4,23,0.00
2013-5-23,87.1,79.7,71.2,73.2,65.8,57.1,81,63,44,29.75,29.61,24,9,24,0.00
2013-5-24,84.0,75.3,68.2,68.7,61.5,56.9,75,63,48,29.96,29.74,15,7,17,0.00
2013-5-25,81.5,74.0,66.6,67.7,63.1,58.7,85,69,53,29.99,29.93,14,7,17,0.00
2013-5-26,87.4,77.8,67.1,68.4,62.4,57.9,82,61,41,29.99,29.89,14,4,17,0.00
2013-5-27,83.5,74.0,65.3,60.7,55.6,50.2,66,53,36,30.02,29.94,14,6,17,0.00
2013-5-28,82.4,73.3,63.9,67.6,62.2,53.7,84,69,52,30.00,29.81,13,4,13,0.00
2013-5-29,89.4,78.4,68.0,71.6,65.1,52.0,89,65,43,29.80,29.61,24,7,26,0.00
2013-5-30,76.8,72.0,70.7,70.4,66.9,60.7,95,84,63,29.74,29.69,11,5,14,0.00
2013-5-31,79.3,72.8,69.6,57.3,55.5,53.8,60,55,44,29.83,29.74,17,10,23,0.00
2013-6-1,79.2,70.3,64.6,65.1,59.1,50.7,91,69,47,29.91,29.82,16,6,17,0.00
2013-6-2,81.9,72.3,63.5,66.2,62.2,58.1,96,72,53,29.89,29.70,18,5,20,0.04
2013-6-3,82.9,73.3,64.6,69.0,61.5,57.3,80,67,48,29.93,29.87,14,5,17,0.00
2013-6-4,86.5,76.2,66.9,70.4,64.8,57.4,90,69,47,29.94,29.85,17,5,17,0.00
2013-6-5,84.9,76.0,67.1,68.4,63.3,58.5,83,66,42,29.99,29.92,16,5,16,0.00
2013-6-6,86.5,76.9,67.5,71.8,65.4,59.9,82,68,53,30.05,29.97,17,4,17,0.00
2013-6-7,86.7,76.7,70.7,69.2,64.1,58.9,86,66,47,30.03,29.87,12,4,12,0.00
2013-6-8,87.3,78.3,69.6,72.0,67.5,64.0,87,71,53,29.89,29.82,21,4,22,0.00
2013-6-9,87.6,78.4,69.1,73.0,67.7,63.1,88,71,54,29.97,29.89,14,4,18,0.00
2013-6-10,88.7,79.8,69.4,72.4,67.6,63.0,87,67,55,29.98,29.84,12,4,15,0.00
2013-6-11,91.9,83.1,74.1,73.5,67.0,60.5,77,59,44,29.86,29.63,14,4,20,0.00
2013-6-12,86.7,76.9,68.0,70.9,65.1,58.7,89,67,51,29.80,29.68,12,4,14,0.06
2013-6-13,82.6,73.4,66.9,68.3,65.1,60.9,93,76,59,29.88,29.78,17,5,17,0.01
2013-6-14,86.5,76.4,67.6,71.8,66.9,63.8,94,73,56,29.96,29.86,18,4,19,0.00
2013-6-15,90.0,80.3,70.2,73.3,67.5,62.6,79,66,52,29.97,29.92,14,4,16,0.00
2013-6-16,95.9,83.2,72.1,76.9,70.8,63.0,87,67,50,29.99,29.93,14,4,14,0.00
2013-6-17,98.8,86.6,73.6,76.5,70.0,61.0,86,59,43,30.01,29.93,20,5,25,0.00
2013-6-18,94.8,87.1,77.7,71.8,67.9,61.9,66,53,43,30.00,29.93,24,10,30,0.00
2013-6-19,93.7,87.7,81.1,70.0,65.5,61.3,58,48,38,29.96,29.87,31,13,32,0.00
2013-6-20,89.8,84.8,83.1,65.5,62.5,60.6,51,47,44,29.91,29.86,20,10,26,0.00
2013-6-23,100.6,88.1,80.2,76.0,73.9,68.6,82,65,42,29.83,29.78,11,3,12,0.00
2013-6-24,100.0,87.6,76.5,77.8,70.0,57.2,81,58,36,29.83,29.77,15,4,15,0.00
2013-6-25,98.2,87.6,77.2,77.5,70.6,66.2,75,58,39,29.82,29.76,11,4,12,0.00
2013-6-26,96.6,85.6,75.4,76.3,71.3,65.5,82,63,46,29.90,29.79,16,5,17,0.00
2013-6-27,95.9,85.2,75.7,77.2,73.5,70.0,86,69,51,29.92,29.86,18,5,19,0.00
2013-6-28,94.5,83.5,74.3,77.2,72.7,68.8,92,71,55,29.93,29.88,17,4,17,0.00
2013-6-29,93.0,82.8,73.2,74.6,70.5,62.3,87,68,48,29.93,29.77,14,5,17,0.00
2013-6-30,90.7,80.0,72.9,70.5,64.6,59.8,79,60,44,29.88,29.78,17,7,18,0.00
2013-7-1,94.5,81.0,71.8,72.5,65.8,60.3,81,62,39,30.03,29.89,16,5,17,0.00
2013-7-2,93.0,82.4,72.1,71.6,67.2,63.2,82,61,43,30.05,29.96,17,5,18,0.00
2013-7-3,91.4,81.2,72.0,71.7,66.2,60.8,82,61,46,30.00,29.89,22,6,22,0.00
2013-7-4,92.3,83.9,74.8,72.4,63.9,58.0,61,51,46,29.94,29.86,24,7,26,0.00
2013-7-5,91.4,83.6,73.6,71.7,64.3,57.5,61,52,43,29.94,29.86,22,7,22,0.00
2013-7-6,90.5,83.7,77.4,72.9,68.5,64.3,74,61,49,29.92,29.85,25,9,32,0.00
2013-7-7,93.0,86.1,78.6,73.5,69.9,66.5,73,59,50,29.97,29.86,21,11,25,0.00
2013-7-8,97.7,87.4,79.2,70.3,67.1,62.5,62,52,40,30.00,29.93,23,10,24,0.00
2013-7-9,97.0,88.7,80.6,72.8,68.8,62.1,62,52,44,29.99,29.83,22,8,24,0.00
2013-7-10,97.9,86.4,78.8,73.3,70.5,65.3,74,60,44,29.87,29.74,21,6,24,0.00
2013-7-11,95.7,85.9,76.8,76.8,68.7,62.0,74,57,45,29.85,29.76,21,5,21,0.00
2013-7-12,95.9,87.2,76.8,77.4,72.0,66.4,81,61,47,29.92,29.84,17,4,21,0.00
2013-7-13,97.0,86.5,77.5,74.8,71.4,67.0,81,61,49,29.93,29.86,21,6,24,0.00
2013-7-14,97.5,86.5,77.4,73.6,69.1,63.3,82,57,42,29.93,29.84,21,6,24,0.00
2013-7-15,97.5,85.6,77.4,73.3,67.3,61.0,74,55,44,29.93,29.84,25,6,27,0.00
2013-7-16,93.4,84.8,76.3,72.0,66.9,61.8,80,56,45,29.95,29.87,26,6,28,0.00
2013-7-17,86.5,80.0,75.9,69.7,66.5,61.3,76,64,53,30.00,29.94,34,12,34,0.00
2013-7-18,89.4,82.1,75.6,67.3,64.4,61.7,71,56,42,30.03,29.97,31,12,33,0.00
2013-7-19,91.4,83.1,76.8,66.2,62.8,58.4,62,51,40,30.02,29.91,25,10,27,0.00
2013-7-20,79.2,76.7,75.6,62.0,61.1,60.3,62,59,54,29.93,29.87,10,3,11,0.00
2013-7-21,97.3,87.6,77.2,69.9,65.1,57.4,58,48,39,29.89,29.82,19,7,19,0.00
2013-7-22,89.8,83.0,77.7,72.3,67.4,61.1,73,60,46,29.91,29.85,26,12,26,0.00
2013-7-23,91.8,83.0,73.4,71.0,63.1,56.2,70,52,35,29.91,29.85,25,9,25,0.00
2013-7-24,99.0,87.3,75.4,70.0,61.6,56.3,54,43,31,29.92,29.88,20,5,20,0.00
2013-7-25,99.7,89.0,78.1,76.5,66.8,57.9,67,49,37,29.96,29.87,14,4,14,0.00
2013-7-26,101.3,89.9,78.6,76.9,68.5,59.5,68,50,37,29.91,29.82,14,4,17,0.00
2013-7-27,99.0,88.6,79.5,77.4,68.3,61.3,67,52,42,29.93,29.84,23,7,30,0.00
2013-7-28,95.5,87.8,80.8,70.4,66.7,61.5,61,50,44,30.01,29.92,20,9,24,0.00
2013-7-29,97.5,89.1,80.2,69.1,64.9,61.9,60,45,33,30.01,29.92,26,8,27,0.00
2013-7-30,102.2,91.5,80.1,79.0,71.0,63.2,74,52,39,29.93,29.76,11,4,13,0.00
2013-7-31,100.6,90.2,81.1,77.0,72.9,66.8,74,57,44,29.80,29.71,25,8,25,0.00
2013-8-1,92.1,86.6,82.4,74.4,70.5,65.6,70,59,48,29.94,29.79,22,12,28,0.00
2013-8-2,93.7,86.3,79.7,71.9,68.0,64.2,70,55,43,29.97,29.92,25,10,27,0.00
2013-8-3,95.5,87.6,80.6,71.5,67.1,62.3,63,51,41,29.96,29.91,31,9,31,0.00
2013-8-4,95.9,86.3,79.9,72.8,66.6,62.5,60,52,43,29.95,29.90,21,5,22,0.00
2013-8-12,95.5,87.1,78.6,72.0,65.7,63.5,63,50,38,29.94,29.85,20,8,20,0.00
2013-8-13,97.0,88.2,80.1,71.2,64.6,59.7,57,46,36,29.93,29.86,24,8,24,0.00
2013-8-14,97.3,88.5,79.0,68.2,63.4,59.4,59,44,31,29.88,29.81,23,8,23,0.00
2013-8-15,100.6,88.8,79.9,72.0,66.4,61.7,59,48,33,29.88,29.82,25,8,25,0.00
2013-8-16,93.0,86.2,79.2,75.6,71.8,65.6,74,63,55,29.90,29.83,21,10,21,0.00
2013-8-17,93.2,85.5,78.6,74.6,72.2,69.4,80,65,54,29.93,29.85,28,13,28,0.00
2013-8-18,95.4,87.1,78.6,69.7,65.3,61.0,64,49,41,29.99,29.90,26,10,26,0.00
2013-8-19,97.3,87.5,78.1,71.1,65.3,59.1,57,48,37,29.97,29.87,21,7,27,0.00
2013-8-20,97.5,87.8,77.5,73.2,66.3,56.8,63,49,39,29.90,29.83,25,9,30,0.00
2013-8-21,92.5,85.6,80.8,71.6,66.3,56.0,66,53,40,29.91,29.85,30,10,30,0.00
2013-8-22,92.3,83.3,77.5,73.9,68.5,65.6,69,61,52,29.89,29.83,21,9,23,0.00
2013-8-23,88.0,80.8,77.4,71.7,67.4,65.1,70,64,54,29.91,29.86,23,5,23,0.00
2013-8-29,84.0,82.7,81.1,74.9,73.0,71.3,79,72,70,29.90,29.88,6,2,9,0.00
2013-8-30,98.8,86.9,78.8,78.8,73.5,67.6,89,65,47,29.94,29.85,17,5,20,0.00
2013-8-31,90.0,82.6,77.4,75.9,68.1,61.6,88,62,49,30.00,29.91,26,8,27,0.00
2013-9-1,91.9,82.0,75.2,71.1,63.4,55.6,79,54,43,30.08,29.99,23,10,25,0.00
2013-9-2,94.3,82.8,74.1,71.6,61.6,52.5,62,49,35,30.10,30.01,24,6,24,0.00
2013-9-3,93.2,82.7,73.6,75.1,70.3,62.0,83,67,51,30.11,29.99,14,4,16,0.00
2013-9-4,87.6,80.9,75.2,70.2,66.2,59.5,73,61,54,30.12,30.01,27,9,27,0.00
2013-9-5,90.7,79.5,70.2,69.0,62.2,56.1,68,56,41,30.13,29.99,13,4,15,0.00
2013-9-6,92.1,80.9,71.4,75.1,69.4,62.7,80,68,56,30.00,29.91,14,4,15,0.00
2013-9-7,86.5,78.6,73.8,76.5,71.9,67.9,89,80,69,30.03,29.94,9,2,9,0.00
2013-9-8,96.6,81.8,71.4,75.6,66.9,55.7,84,62,45,30.14,30.02,23,7,29,0.00
2013-9-9,86.9,80.0,73.4,65.3,61.1,56.6,74,53,44,30.17,30.09,23,8,24,0.00
2013-9-10,92.7,82.0,73.4,74.8,67.2,57.1,77,61,47,30.12,30.02,13,4,14,0.00
2013-9-11,94.5,83.5,73.4,79.6,71.3,60.1,78,67,55,30.05,29.96,13,3,14,0.00
2013-9-12,100.4,87.6,78.3,80.4,71.9,66.4,73,60,47,29.99,29.92,14,3,14,0.00
2013-9-13,93.4,84.0,76.8,80.1,74.5,67.7,86,73,61,29.98,29.91,10,4,13,0.00
2013-9-14,91.0,82.0,74.5,72.3,67.5,63.4,77,62,42,30.04,29.95,15,5,17,0.00
2013-9-15,90.9,80.0,70.9,69.2,64.0,53.5,83,61,31,30.03,29.91,12,5,14,0.00
2013-9-16,91.9,79.2,73.0,74.6,70.2,63.6,84,75,53,29.92,29.65,17,5,17,0.00
2013-9-17,89.8,79.7,71.6,74.6,70.6,66.8,90,75,49,29.75,29.67,14,5,14,0.00
2013-9-18,89.4,81.1,73.8,76.6,69.0,64.1,83,68,50,29.70,29.64,19,7,19,0.00
2013-9-19,92.3,81.1,70.7,73.1,68.8,62.8,83,67,45,29.77,29.68,12,4,12,0.00
2013-9-20,91.8,79.9,71.4,75.1,70.1,65.8,87,73,51,29.95,29.77,15,4,15,0.00
2013-9-21,85.3,76.5,71.8,70.4,67.4,64.5,88,74,59,30.05,29.95,17,6,18,0.00
2013-9-22,83.8,73.1,69.4,66.2,61.1,55.3,76,66,51,30.09,30.04,22,8,28,0.00
2013-9-23,87.4,73.9,66.0,65.2,59.1,54.6,77,61,44,30.07,29.95,17,6,19,0.00
2013-9-24,86.9,76.2,66.6,69.4,64.1,56.7,83,67,47,29.98,29.91,12,4,12,0.00
2013-9-25,91.0,78.4,68.4,75.2,69.6,63.7,93,76,53,30.04,29.97,11,4,13,0.00
2013-9-26,90.7,78.9,69.4,78.8,71.8,69.0,99,81,55,30.03,29.91,11,4,13,0.00
2013-9-27,91.2,79.7,70.3,74.1,69.4,65.5,89,72,47,29.94,29.87,12,5,14,0.00
2013-9-28,90.7,79.2,69.4,76.3,70.6,63.7,91,76,57,29.97,29.91,11,4,12,0.00
2013-9-29,92.5,80.0,70.5,77.0,71.8,67.3,95,77,58,29.96,29.89,13,4,13,0.00
2013-9-30,92.3,78.9,70.3,84.0,74.7,70.1,99,87,68,29.90,29.66,18,6,23,0.00
2013-10-1,85.3,75.6,67.5,81.5,72.1,67.2,99,89,72,29.68,29.55,19,6,24,0.41
2013-10-2,86.7,71.4,62.8,71.7,65.1,60.5,93,81,57,29.96,29.64,21,6,25,0.02
2013-10-3,68.4,62.2,60.1,60.7,56.6,51.9,95,82,70,30.27,29.95,25,12,27,0.13
2013-10-4,65.7,59.7,57.4,54.8,51.3,48.8,81,74,65,30.37,30.26,21,11,24,0.00
2013-10-5,69.3,60.5,55.6,53.5,50.0,47.1,77,69,55,30.37,30.27,21,10,24,0.00
2013-10-6,69.4,62.3,57.6,55.3,51.7,45.3,77,68,59,30.35,30.26,20,8,21,0.00
2013-10-7,77.2,65.0,56.5,58.8,53.9,48.1,82,68,51,30.36,30.30,14,5,17,0.00
2013-10-8,82.0,68.8,60.4,66.0,58.2,53.2,82,70,48,30.35,30.27,16,3,17,0.00
2013-10-9,84.0,70.7,60.4,65.8,59.9,54.9,84,70,46,30.29,30.17,8,3,10,0.00
2013-10-10,74.3,69.8,66.9,71.8,67.1,62.1,98,91,83,30.18,30.07,7,3,9,0.00
2013-10-11,91.2,75.7,64.9,77.1,69.8,63.7,99,84,58,30.20,30.10,8,3,10,0.00
2013-10-12,91.9,77.8,67.8,79.0,72.7,67.6,99,86,59,30.23,30.15,11,2,11,0.00
2013-10-13,90.9,77.1,68.0,79.9,71.6,67.2,99,84,61,30.18,30.10,11,3,11,0.00
2013-10-14,90.0,76.2,66.6,71.7,66.6,63.9,94,74,48,30.17,30.09,9,2,11,0.00
2013-10-15,87.1,74.9,66.4,73.5,68.5,62.7,97,82,60,30.15,29.98,9,2,11,0.00
2013-10-16,76.1,71.8,66.0,73.7,69.7,65.8,99,93,79,29.99,29.60,21,4,23,0.17
2013-10-17,75.4,68.8,61.5,71.3,59.9,49.8,99,75,49,29.77,29.53,24,9,31,0.00
2013-10-18,81.5,70.5,60.8,64.1,58.7,52.8,85,67,50,30.03,29.77,11,4,12,0.00
2013-10-19,81.3,71.4,63.7,61.8,55.1,50.1,84,57,42,30.35,30.03,30,6,30,0.00
2013-10-20,75.4,68.2,61.9,61.0,55.6,53.0,79,65,50,30.42,30.35,17,5,17,0.00
2013-10-21,82.8,68.5,58.5,62.8,56.8,47.7,93,67,43,30.35,30.22,9,3,9,0.00
2013-10-22,82.9,70.7,60.1,70.2,63.7,59.0,98,80,57,30.23,30.14,7,2,8,0.00
2013-10-23,85.1,72.4,61.3,66.1,61.0,53.2,92,69,51,30.22,30.16,24,6,30,0.00
2013-10-24,80.8,72.0,63.5,62.9,58.3,52.0,83,63,51,30.23,30.16,16,6,23,0.00
2013-10-25,83.1,69.0,59.5,62.6,54.9,47.3,73,61,47,30.20,30.12,14,3,14,0.00
2013-10-26,86.0,68.8,57.0,59.4,49.4,39.5,64,51,35,30.22,30.15,13,3,15,0.00
2013-10-27,87.1,70.2,58.8,66.0,51.3,36.3,87,53,31,30.19,30.09,7,2,8,0.00
2013-10-28,84.2,70.1,59.9,68.5,62.8,56.6,95,79,51,30.14,30.07,8,3,10,0.00
2013-10-29,84.0,70.7,60.4,69.7,63.6,56.5,95,79,57,30.09,30.01,7,3,7,0.00
2013-10-30,86.4,71.5,61.7,71.9,64.2,59.4,98,79,59,30.09,30.02,13,3,15,0.00
2013-10-31,87.3,71.3,61.7,68.1,59.0,52.7,83,66,51,30.17,30.08,14,4,17,0.00
2013-11-1,80.1,68.9,60.4,64.2,58.3,54.2,82,70,54,30.22,30.14,17,4,17,0.00
2013-11-2,81.0,67.3,57.7,64.7,59.2,53.4,94,76,55,30.19,30.10,8,2,11,0.00
2013-11-3,81.1,69.5,61.3,72.7,65.9,61.1,99,89,66,30.13,30.05,8,3,9,0.00
2013-11-4,82.4,70.7,63.1,75.2,67.5,62.6,99,90,68,30.08,29.94,10,4,11,0.00
2013-11-5,84.0,71.9,66.4,74.1,68.2,65.4,99,89,59,29.95,29.75,22,7,24,0.00
2013-11-6,71.1,65.5,61.0,69.1,64.3,60.2,99,96,83,29.75,29.59,30,8,30,0.66
2013-11-7,73.9,67.1,61.9,67.1,56.9,43.7,99,72,43,30.12,29.69,24,7,26,0.00
2013-11-8,82.2,68.0,59.4,64.5,57.0,47.2,87,69,51,30.19,30.11,6,2,7,0.00
2013-11-9,83.8,67.8,59.0,67.0,60.3,54.5,99,78,55,30.14,30.03,8,2,8,0.00
2013-11-10,84.0,68.6,60.4,71.0,65.0,58.8,99,89,64,30.04,29.88,7,3,11,0.00
2013-11-11,76.5,69.1,62.8,74.0,68.2,62.5,99,97,87,30.01,29.84,22,8,24,0.73
2013-11-12,76.3,69.8,66.7,71.5,68.1,65.2,99,95,82,30.08,29.98,17,9,17,0.01
2013-11-13,74.3,66.7,62.6,65.8,61.9,59.5,96,85,69,30.08,29.96,30,11,30,0.06
2013-11-14,64.8,61.8,58.1,62.2,59.8,57.8,99,93,84,30.00,29.87,34,13,40,0.63
2013-11-15,70.9,62.4,57.4,62.3,58.1,55.7,98,86,71,30.14,29.92,20,7,21,0.00
2013-11-16,67.3,61.0,58.3,58.0,55.4,51.6,92,82,71,30.21,30.12,22,9,25,0.00
2013-11-17,70.7,59.6,52.5,55.2,51.1,47.5,86,74,57,30.22,30.13,19,6,22,0.00
2013-11-18,67.3,59.0,52.7,55.5,51.5,47.5,85,77,63,30.18,30.12,17,5,20,0.00
2013-11-19,75.2,62.7,54.3,62.0,55.7,49.8,93,79,58,30.18,30.05,14,4,15,0.00
2013-11-20,73.0,66.6,60.1,71.9,65.5,59.8,99,96,89,30.05,29.90,22,8,24,1.17
2013-11-21,76.8,66.4,58.1,68.1,63.4,57.8,99,90,72,29.92,29.79,21,6,26,0.18
2013-11-22,73.6,63.7,57.2,66.7,59.6,56.5,99,87,69,29.84,29.73,8,3,8,0.04
2013-11-23,75.2,66.0,61.2,67.7,61.5,57.4,94,86,72,29.84,29.77,18,6,24,0.00
2013-11-24,68.2,62.6,58.1,67.0,61.3,57.6,99,96,85,29.81,29.70,22,6,30,0.79
2013-11-25,75.4,62.7,58.3,61.9,56.9,54.7,90,82,61,29.77,29.72,14,3,14,0.00
2013-11-26,72.7,61.2,57.2,61.5,57.5,54.9,99,88,67,29.81,29.71,9,3,11,0.18
2013-11-27,66.6,59.1,54.0,56.9,50.5,45.5,96,74,54,30.24,29.81,17,6,18,0.00
2013-11-28,65.1,57.3,50.2,49.8,46.9,43.9,84,69,49,30.34,30.24,14,4,16,0.00
2013-11-29,70.5,59.8,48.9,56.9,50.8,44.5,87,73,60,30.22,30.13,11,3,12,0.00
2013-11-30,59.5,57.7,55.6,56.6,52.8,48.8,91,84,76,30.17,30.07,30,12,30,0.06
2013-12-1,66.6,63.1,57.2,64.4,61.1,54.9,99,93,85,30.09,29.93,40,16,43,0.11
2013-12-2,73.2,63.8,59.4,70.1,62.9,57.8,99,97,84,30.11,29.97,23,9,30,0.35
2013-12-3,60.3,51.8,45.5,58.2,47.7,42.4,97,86,76,30.22,30.06,53,22,56,0.04
2013-12-4,51.1,46.6,43.7,46.4,43.2,39.7,99,88,76,30.20,30.10,24,5,27,0.14
2013-12-5,67.3,52.5,42.1,52.1,42.4,38.0,91,70,45,30.14,30.07,6,2,8,0.00
2013-12-6,71.2,56.1,47.5,56.2,45.8,35.2,87,69,54,30.12,29.91,7,3,8,0.00
2013-12-7,66.2,54.9,50.0,59.0,48.6,36.8,97,80,60,30.27,29.89,14,4,15,0.01
2013-12-8,61.9,51.0,43.7,45.7,35.6,30.8,75,56,42,30.46,30.27,14,4,20,0.00
2013-12-9,67.8,54.4,44.6,50.2,39.1,30.6,81,58,35,30.46,30.26,13,3,13,0.00
2013-12-10,67.3,55.7,46.4,52.0,45.8,37.7,91,71,49,30.39,30.13,39,11,43,0.00
2013-12-11,49.1,44.2,41.5,37.9,31.1,27.1,73,60,46,30.56,30.39,34,12,35,0.00
2013-12-12,59.9,47.2,40.1,42.9,35.5,27.9,81,65,38,30.50,30.29,17,4,20,0.00
2013-12-13,53.6,49.0,46.0,47.4,44.7,42.1,93,85,75,30.30,30.19,11,3,13,0.00
2013-12-14,69.6,54.0,45.1,57.4,47.9,41.8,95,81,56,30.41,30.24,7,2,8,0.00
2013-12-15,74.3,59.4,52.2,63.4,54.8,50.1,99,85,62,30.41,30.34,7,3,8,0.00
2013-12-16,59.5,55.1,51.1,53.8,50.4,44.1,95,84,73,30.43,30.33,27,9,27,0.00
2013-12-17,56.8,50.9,46.9,47.9,44.0,40.9,86,77,69,30.47,30.39,24,10,24,0.00
2013-12-18,57.6,49.3,44.8,51.0,44.3,41.2,90,83,69,30.39,30.27,23,8,27,0.00
2013-12-19,57.0,50.2,46.0,49.5,44.9,41.2,97,82,66,30.34,30.26,23,5,24,0.00
2013-12-20,69.1,52.7,43.3,53.1,44.5,40.0,93,75,49,30.51,30.33,7,2,7,0.00
2013-12-21,67.8,54.5,45.9,59.7,49.9,44.4,99,85,64,30.56,30.49,7,2,8,0.00
2013-12-22,69.4,54.0,44.2,50.0,44.5,36.1,96,72,47,30.55,30.43,14,3,14,0.00
2013-12-23,67.3,53.7,45.5,54.7,47.7,42.0,93,81,57,30.44,30.33,8,2,11,0.00
2013-12-24,61.2,54.0,51.1,53.5,50.4,48.0,92,88,66,30.36,30.20,21,5,24,0.00
2013-12-25,64.8,59.6,54.3,57.8,55.2,51.4,94,85,74,30.25,30.09,24,11,29,0.00
2013-12-26,71.8,60.2,54.9,66.5,58.6,54.6,99,94,74,30.11,29.91,13,4,14,0.00
2013-12-27,61.7,58.0,54.3,61.4,57.6,54.1,99,99,94,29.91,29.82,16,6,21,0.47
2013-12-28,60.3,56.8,54.0,57.9,55.0,49.2,99,94,77,29.96,29.82,27,12,30,0.06
2013-12-29,70.3,57.7,50.9,57.8,51.2,46.6,92,80,61,30.12,29.95,11,3,13,0.00
2013-12-30,70.5,57.2,49.5,56.4,49.6,44.8,88,76,58,30.17,30.10,12,2,12,0.00
2013-12-31,54.7,51.7,49.1,49.9,47.4,45.3,89,85,79,30.23,30.15,22,8,23,0.00
2014-1-1,51.8,50.0,47.8,51.5,48.0,43.4,99,93,82,30.21,30.12,12,3,14,0.39
2014-1-2,65.5,54.1,49.5,62.4,51.3,47.5,99,91,75,30.17,30.10,10,2,12,0.04